Location: Anjeux
(47.8815°N, 6.2076°E)
Time: 08:15:55
(UTC+00:00)

X-37B - Pass Details

Date: 26 September 2021
Orbit: 385 x 389 km, 45.0° (Epoch: 13 October)

Event Time Altitude Azimuth Distance (km) Brightness Sun altitude
Exits shadow 02:45:15 12° 108° (ESE) 1,328 3.7 -26.8°
Drops below altitude 10° 02:45:32 10° 104° (ESE) 1,413 3.9 -26.7°
Sets 02:47:55 0° 88° (E) 2,271 5.4 -26.4°
